JR4VEV-13 Weather Reports


time (UTC)temp
C
wind
direction
speed
KPH
gust
KPH
rain 1hr
cm
rain 24hr
cm
rain mn
cm
humidity
%
barometer
mb
20260509102125 16 262 4.8 4.8 0.00 0.00 0.00 59 1018.0
20260509101125 16 254 0.0 3.2 0.00 0.00 0.00 59 1017.7
20260509100124 17 220 1.6 3.2 0.00 0.00 0.00 57 1017.6
20260509095125 17 266 0.0 4.8 0.00 0.00 0.00 55 1017.4
20260509094126 18 257 0.0 0.0 0.00 0.00 0.00 51 1017.3
20260509093126 20 272 0.0 3.2 0.00 0.00 0.00 47 1017.2
20260509092126 20 248 0.0 3.2 0.00 0.00 0.00 47 1017.1
20260509091126 21 259 0.0 1.6 0.00 0.00 0.00 43 1016.9
20260509090126 22 267 1.6 1.6 0.00 0.00 0.00 38 1016.7
20260509085126 23 51 0.0 1.6 0.00 0.00 0.00 34 1016.7
20260509084125 22 214 3.2 6.4 0.00 0.00 0.00 34 1016.7
20260509083125 22 278 0.0 4.8 0.00 0.00 0.00 33 1016.4
20260509082125 22 265 1.6 8.0 0.00 0.00 0.00 32 1016.6
20260509081125 23 300 3.2 9.7 0.00 0.00 0.00 33 1016.4
20260509080125 23 245 1.6 6.4 0.00 0.00 0.00 32 1016.4
20260509075124 23 217 1.6 3.2 0.00 0.00 0.00 32 1016.3
20260509074126 23 254 0.0 6.4 0.00 0.00 0.00 33 1016.3
20260509073125 23 263 3.2 4.8 0.00 0.00 0.00 32 1016.3
20260509072125 23 115 3.2 8.0 0.00 0.00 0.00 32 1016.1
20260509071125 23 262 4.8 9.7 0.00 0.00 0.00 33 1016.2
20260509070125 23 259 0.0 8.0 0.00 0.00 0.00 34 1016.1
20260509065125 23 323 3.2 6.4 0.00 0.00 0.00 35 1016.2
20260509064126 23 282 4.8 12.9 0.00 0.00 0.00 34 1016.3
20260509062126 23 166 1.6 6.4 0.00 0.00 0.00 34 1016.3
20260509061125 23 206 1.6 11.3 0.00 0.00 0.00 33 1016.3
20260509060125 23 263 1.6 6.4 0.00 0.00 0.00 34 1016.3
20260509055126 23 108 0.0 9.7 0.00 0.00 0.00 34 1016.1
20260509054125 23 129 8.0 11.3 0.00 0.00 0.00 33 1016.3
20260509053124 24 298 1.6 4.8 0.00 0.00 0.00 33 1016.0
20260509052124 25 217 4.8 4.8 0.00 0.00 0.00 33 1016.0
20260509051126 24 181 0.0 8.0 0.00 0.00 0.00 33 1016.0
20260509050126 25 205 4.8 9.7 0.00 0.00 0.00 32 1016.1
20260509045125 25 288 6.4 16.1 0.00 0.00 0.00 23 1016.3
20260509044125 25 268 0.0 17.7 0.00 0.00 0.00 24 1016.4
20260509043126 25 249 3.2 16.1 0.00 0.00 0.00 24 1016.6
20260509042125 25 318 8.0 12.9 0.00 0.00 0.00 24 1016.6
20260509041125 24 321 6.4 12.9 0.00 0.00 0.00 24 1016.8
20260509040125 24 267 0.0 14.5 0.00 0.00 0.00 22 1017.0
20260509035126 24 264 4.8 16.1 0.00 0.00 0.00 24 1017.0
20260509034126 23 267 4.8 6.4 0.00 0.00 0.00 24 1017.0
20260509033125 23 69 1.6 6.4 0.00 0.00 0.00 26 1017.1
20260509032125 23 282 3.2 12.9 0.00 0.00 0.00 26 1017.3
20260509031124 23 286 6.4 16.1 0.00 0.00 0.00 26 1017.3
20260509030126 23 283 12.9 16.1 0.00 0.00 0.00 27 1017.4
20260509025125 23 288 9.7 16.1 0.00 0.00 0.00 27 1017.5
20260509024125 23 308 4.8 11.3 0.00 0.00 0.00 28 1017.6
20260509023124 22 34 0.0 11.3 0.00 0.00 0.00 30 1017.7
20260509022126 22 13 4.8 9.7 0.00 0.00 0.00 30 1017.9
20260509021125 22 218 6.4 4.8 0.00 0.00 0.00 31 1017.9
20260509020125 22 274 3.2 8.0 0.00 0.00 0.00 32 1018.2
20260509015124 22 200 1.6 4.8 0.00 0.00 0.00 32 1018.3
20260509014124 21 258 0.0 6.4 0.00 0.00 0.00 34 1018.5
20260509013126 21 136 4.8 12.9 0.00 0.00 0.00 33 1018.5
20260509012124 21 269 3.2 11.3 0.00 0.00 0.00 36 1018.5
20260509011126 21 271 0.0 8.0 0.00 0.00 0.00 35 1018.5
20260509010125 20 311 3.2 6.4 0.00 0.00 0.00 36 1018.7
20260509005126 20 288 3.2 11.3 0.00 0.00 0.00 39 1018.8
20260509004125 20 280 1.6 6.4 0.00 0.00 0.00 39 1018.7
20260509003125 20 235 3.2 6.4 0.00 0.00 0.00 42 1018.8
20260509002124 19 150 1.6 1.6 0.00 0.00 0.00 43 1018.8
20260509001125 18 272 0.0 3.2 0.00 0.00 0.00 47 1018.7
20260509000125 18 172 1.6 1.6 0.00 0.00 0.00 51 1018.8
20260508235125 18 294 0.0 0.0 0.00 0.00 0.00 52 1019.0
20260508234124 17 89 0.0 1.6 0.00 0.00 0.00 61 1019.1
20260508233125 15 89 1.6 1.6 0.00 0.00 0.00 65 1019.1
20260508232125 14 297 0.0 3.2 0.00 0.00 0.00 69 1019.1
20260508231126 13 302 0.0 3.2 0.00 0.00 0.00 72 1019.1
20260508230124 13 283 1.6 1.6 0.00 0.00 0.00 74 1019.3
20260508225125 12 296 0.0 1.6 0.00 0.00 0.00 78 1019.3
20260508224125 11 295 0.0 3.2 0.00 0.00 0.00 79 1019.1
20260508223125 11 294 0.0 0.0 0.00 0.00 0.00 81 1019.2
20260508222125 10 255 0.0 0.0 0.00 0.00 0.00 83 1019.3
20260508221124 10 255 0.0 0.0 0.00 0.00 0.00 85 1019.2
20260508220125 9 255 0.0 0.0 0.00 0.00 0.00 89 1019.2
20260508215125 8 255 0.0 1.6 0.00 0.00 0.00 91 1019.1
20260508214125 8 255 0.0 1.6 0.00 0.00 0.00 92 1019.1
20260508213125 7 255 0.0 0.0 0.00 0.00 0.00 94 1019.1
20260508212125 7 255 0.0 0.0 0.00 0.00 0.00 94 1019.0
20260508211125 7 255 0.0 1.6 0.00 0.00 0.00 94 1018.8
20260508210125 7 255 1.6 1.6 0.00 0.00 0.00 94 1018.7
20260508205124 7 109 0.0 1.6 0.00 0.00 0.00 94 1018.6
20260508204124 6 109 0.0 0.0 0.00 0.00 0.00 93 1018.4
20260508203125 6 109 0.0 0.0 0.00 0.00 0.00 93 1018.5
20260508202125 7 109 0.0 1.6 0.00 0.00 0.00 93 1018.4
20260508201125 6 109 0.0 0.0 0.00 0.00 0.00 93 1018.3
20260508200124 7 109 0.0 0.0 0.00 0.00 0.00 92 1018.3
20260508195124 7 109 0.0 1.6 0.00 0.00 0.00 92 1018.0
20260508194123 7 109 0.0 1.6 0.00 0.00 0.00 92 1017.9
20260508193125 7 109 0.0 0.0 0.00 0.00 0.00 92 1017.6
20260508192124 7 109 0.0 3.2 0.00 0.00 0.00 92 1017.5
20260508191124 7 109 0.0 1.6 0.00 0.00 0.00 92 1017.2
20260508190125 7 109 0.0 0.0 0.00 0.00 0.00 92 1017.1
20260508185124 7 266 0.0 0.0 0.00 0.00 0.00 92 1016.9
20260508184125 7 266 0.0 1.6 0.00 0.00 0.00 92 1016.9
20260508183125 7 266 0.0 1.6 0.00 0.00 0.00 91 1016.8
20260508182124 7 266 0.0 0.0 0.00 0.00 0.00 90 1017.0
20260508181124 7 266 0.0 0.0 0.00 0.00 0.00 90 1016.8
20260508180123 7 266 0.0 0.0 0.00 0.00 0.00 90 1016.6
20260508175125 7 266 0.0 0.0 0.00 0.00 0.00 89 1016.4
20260508174125 8 266 0.0 1.6 0.00 0.00 0.00 89 1016.3
20260508173123 8 266 0.0 0.0 0.00 0.00 0.00 89 1016.4
20260508172125 8 266 0.0 0.0 0.00 0.00 0.00 88 1016.4
20260508171124 8 266 0.0 3.2 0.00 0.00 0.00 88 1016.3
20260508170124 8 262 0.0 1.6 0.00 0.00 0.00 88 1016.3
20260508165124 8 278 0.0 0.0 0.00 0.00 0.00 86 1016.3
20260508164123 8 278 0.0 3.2 0.00 0.00 0.00 86 1016.2
20260508163125 8 285 0.0 1.6 0.00 0.00 0.00 86 1016.2
20260508162123 8 285 0.0 1.6 0.00 0.00 0.00 86 1016.2
20260508161123 8 285 0.0 0.0 0.00 0.00 0.00 86 1016.2
20260508160125 9 285 0.0 0.0 0.00 0.00 0.00 84 1016.0
20260508155124 9 292 0.0 3.2 0.00 0.00 0.00 85 1016.2
20260508154123 9 283 0.0 1.6 0.00 0.00 0.00 85 1016.1
20260508153125 9 291 0.0 1.6 0.00 0.00 0.00 84 1016.2
20260508152124 9 249 0.0 0.0 0.00 0.00 0.00 84 1016.1
20260508151125 9 261 0.0 1.6 0.00 0.00 0.00 84 1016.0
20260508150124 10 272 0.0 0.0 0.00 0.00 0.00 84 1015.8
20260508145125 10 272 0.0 0.0 0.00 0.00 0.00 82 1015.7
20260508144123 10 272 0.0 3.2 0.00 0.00 0.00 82 1015.8
20260508143123 10 264 0.0 1.6 0.00 0.00 0.00 82 1015.6
20260508142125 10 259 0.0 1.6 0.00 0.00 0.00 81 1015.5
20260508141124 10 235 0.0 4.8 0.00 0.00 0.00 80 1015.5
20260508140124 10 267 1.6 3.2 0.00 0.00 0.00 81 1015.4
20260508135124 10 281 0.0 1.6 0.00 0.00 0.00 81 1015.2
20260508134124 10 259 0.0 3.2 0.00 0.00 0.00 79 1015.2
20260508133124 11 253 1.6 1.6 0.00 0.00 0.00 78 1015.2
20260508132124 11 235 0.0 1.6 0.00 0.00 0.00 77 1015.0
20260508131123 11 235 0.0 1.6 0.00 0.00 0.00 77 1015.0
20260508130124 11 226 0.0 0.0 0.00 0.00 0.00 76 1015.0
20260508125125 11 266 0.0 1.6 0.00 0.00 0.00 75 1014.8
20260508124124 12 240 0.0 0.0 0.00 0.00 0.00 75 1014.6
20260508123125 12 214 0.0 0.0 0.00 0.00 0.00 73 1014.4
20260508122125 12 214 0.0 1.6 0.00 0.00 0.00 72 1014.5
20260508121126 12 244 0.0 0.0 0.00 0.00 0.00 71 1014.4
20260508120125 13 244 0.0 0.0 0.00 0.00 0.00 70 1014.1
20260508115126 13 244 0.0 0.0 0.00 0.00 0.00 68 1014.0
20260508114125 13 244 0.0 1.6 0.00 0.00 0.00 66 1013.7
20260508113125 14 241 0.0 1.6 0.00 0.00 0.00 65 1013.6
20260508112126 15 239 1.6 1.6 0.00 0.00 0.00 63 1013.6
20260508111126 15 239 0.0 3.2 0.00 0.00 0.00 62 1013.3
20260508110125 15 265 0.0 4.8 0.00 0.00 0.00 61 1013.0
20260508105126 15 263 1.6 1.6 0.00 0.00 0.00 58 1012.9
20260508104126 16 235 0.0 0.0 0.00 0.00 0.00 56 1012.7
20260508103125 16 300 0.0 0.0 0.00 0.00 0.00 51 1012.4